TIME,DELAY(SENSOR),PRES,OXYGEN,RAWTEMP,T(OPTODE),TCPHASE,FLUOR,BETA(BETA700),BETA(BETA412),BETA(BETA440),CDOM,C(CSC),ED(ED411.90),ED(ED443.80),ED(ED489.40),ED(ED554.70),LU(LU412.20),LU(LU443.80),LU(LU489.40),LU(LU555.00),COMP,TILTX,TILTY,CHECK
1368915474,5805,882.5399780273438000,142.9674072265625000,403.5296936035156000,10.4950799942016600,40.4063911437988300,53,119,99,83,80,10611,2146961956,2147518226,2147286006,2147495131,2147084644,2146934098,2147699337,2147123785,1595,-1,9,2610
1368919070,5804,1027.3699951171875000,167.7859954833984400,489.5130004882812500,7.8544812202453610,39.8801193237304700,53,145,103,83,80,10587,2146962852,2147517284,2147294573,2147508562,2147085979,2146927232,2147713846,2147120393,3074,-1,8,43960
1368922670,5804,1044.6500244140625000,179.8769989013672000,510.4621887207031000,7.2045431137084960,39.3896484375000000,53,126,101,83,81,10594,2146961773,2147520420,2147296018,2147514112,2147083949,2146922294,2147716169,2147120493,3170,0,8,37943
1368926270,5807,1047.8499755859375000,187.8081970214843800,510.4566040039062500,7.2047181129455570,38.8574905395507800,53,125,101,82,80,10569,2146963995,2147516717,2147297526,2147516690,2147083465,2146925714,2147716480,2147120228,56,-1,8,10227
1368929870,5807,1042.7600097656250000,182.5437927246093800,510.9768981933594000,7.1885390281677250,39.2171401977539060,53,199,102,82,80,10572,2146962761,2147520420,2147295780,2147518921,2147088374,2146925714,2147720521,2147122797,3592,-1,8,39502
1368933470,5807,1041.2900390625000000,187.1083068847656200,510.7072143554687500,7.1969261169433590,38.9086494445800800,52,129,101,85,80,10558,2146963062,2147517110,2147296978,2147514633,2147085677,2146924406,2147721581,2147120758,4,0,8,24913
1368937070,5806,1046.4000244140625000,187.2973937988281200,510.6116027832031000,7.1998977661132810,38.8939094543457000,53,128,102,84,81,10556,2146961042,2147521600,2147296859,2147514276,2147084681,2146922450,2147720740,2147120009,452,0,8,41553
1368940670,5805,1042.6099853515625000,191.2380065917968800,511.2666931152344000,7.1795248985290530,38.6488685607910160,52,138,101,83,79,10555,2146961728,2147519616,2147296859,2147517394,2147085933,2146929993,2147717394,2147120018,1096,-1,8,16907
1368944270,5801,1039.6899414062500000,181.0437011718750000,504.3723144531250000,7.3937821388244630,39.2035102844238300,53,137,102,83,79,10545,2146963035,2147520310,2147294153,2147515739,2147084827,2146923940,2147717056,2147121965,2563,-1,8,47646
1368947870,5805,1041.3599853515625000,177.7599945068359400,504.0046997070312500,7.4051971435546875,39.4225196838378900,52,132,143,84,79,10539,2146960960,2147518509,2147291318,2147511972,2147084251,2146922633,2147724059,2147118820,2808,-1,8,8119
1368951470,5808,1045.3000488281250000,179.4945068359375000,502.4783935546875000,7.4525837898254395,39.2756118774414060,52,135,106,85,80,10541,2146963812,2147522221,2147295497,2147512082,2147086518,2146923081,2147715858,2147122642,249,-1,8,17785
1368955070,5805,1030.0699462890625000,164.3200988769531200,493.2174072265625000,7.7397661209106445,40.1984100341796900,53,132,104,86,80,10538,2146961417,2147518957,2147294454,2147509824,2147084928,2146928585,2147717677,2147119634,3281,0,8,44556
1368958670,5804,1027.7399902343750000,169.0536956787109400,492.3179931640625000,7.7676258087158200,39.8358306884765600,52,130,103,86,81,10536,2146959917,2147519634,2147294016,2147509001,2147086820,2146922624,2147718134,2147117796,3239,-1,8,37101
1368962270,5805,1031.6999511718750000,169.5792999267578000,491.6422119140625000,7.7885541915893555,39.7854499816894500,53,130,103,85,80,10532,2146960228,2147517238,2147295963,2147511789,2147083419,2146923465,2147714505,2147123355,263,0,8,3249
1368965870,5804,1033.4799804687500000,172.3556976318359400,491.2898864746094000,7.7994642257690430,39.5811195373535160,52,132,104,84,80,10530,2146961508,2147518144,2147290806,2147512493,2147083209,2146927003,2147716525,2147121316,193,-1,8,46570
1368969470,5807,1034.9699707031250000,172.6069946289062500,490.8492126464844000,7.8131108283996580,39.5549392700195300,53,129,102,82,81,10529,2146958235,2147519652,2147293440,2147511506,2147083382,2146924562,2147718848,2147122258,129,0,8,20150
1368973070,5807,1017.0800170898438000,164.6192016601562500,481.8096008300781000,8.0927553176879880,39.9804496765136700,54,138,102,85,80,10527,2146961974,2147517970,2147291986,2147509339,2147083894,2146932370,2147718336,2147121517,186,-1,8,32921
1368976670,5808,1019.1799926757812000,155.8433074951172000,481.4555053710937500,8.1036996841430660,40.6432113647460940,53,126,105,84,80,10476,2146960694,2147520969,2147292809,2147511469,2147083894,2146931712,2147716809,2147121380,30,-1,8,14996
1368980270,5808,1021.0000000000000000,164.0820007324218800,480.3189086914062500,8.1388216018676760,39.9960594177246100,53,134,103,84,81,10475,2146960100,2147516288,2147294701,2147509184,2147081426,2146922496,2147714678,2147120868,241,-1,8,11860
1368983870,5801,1015.1199951171875000,163.8177947998047000,481.8380126953125000,8.0918760299682620,40.0404205322265600,53,135,101,85,80,10467,2146961590,2147519762,2147289974,2147509595,2147084854,2146928109,2147712365,2147122432,3046,-1,9,46548
1368987470,5804,1015.6799926757812000,163.2743988037109400,481.7728881835937500,8.0938911437988280,40.0810813903808600,52,129,104,86,80,10456,2146959972,2147517293,2147292169,2147507977,2147083574,2146930605,2147717238,2147121197,2821,-1,8,54953
1368991070,5806,1022.7800292968750000,164.3708953857422000,480.9650878906250000,8.1188535690307620,39.9848594665527340,53,126,104,84,80,10462,2146958272,2147516781,2147292096,2147510774,2147086052,2146929929,2147713517,2147122304,3463,-1,8,23859
1368994670,5807,1019.5900268554688000,164.6423034667968800,480.2145996093750000,8.1420431137084960,39.9515686035156250,53,131,102,85,80,10454,2146963273,2147517604,2147293046,2147508434,2147084470,2146927350,2147713060,2147125933,812,-1,8,15095
1368998270,5806,1021.0999755859375000,163.4886016845703000,480.3629150390625000,8.1374607086181640,40.0407104492187500,53,126,102,83,80,10454,2146959259,2147514944,2147294025,2147509092,2147082953,2146933101,2147712566,2147120484,803,-1,8,8164
1369001870,5807,1023.3599853515625000,161.9071960449218800,480.0664978027344000,8.1466188430786130,40.1548805236816400,53,128,103,84,81,10458,2146962550,2147517915,2147290313,2147505536,2147084434,2146927890,2147714560,2147120420,664,-1,8,2698
1369005470,5807,1026.1899414062500000,158.2509002685547000,479.0903015136719000,8.1767759323120120,40.4163703918457000,54,125,102,84,79,10448,2146961051,2147519149,2147294363,2147508434,2147084342,2146928320,2147714724,2147124050,174,0,8,38891
1369009070,5805,1023.4400024414062000,153.7077941894531200,479.5015869140625000,8.1640710830688480,40.7770195007324200,53,129,104,82,80,10447,2146959533,2147517942,2147288347,2147506861,2147087625,2146930715,2147710656,2147119753,3548,0,8,6237
1369012670,5807,1022.8400268554688000,153.8179016113281200,480.3604125976562500,8.1375389099121100,40.7827682495117200,53,139,103,85,81,10439,2146961325,2147520868,2147290313,2147509659,2147084352,2146923090,2147713197,2147122889,345,-1,8,43115
1369016270,5807,1024.6600341796875000,159.6643066406250000,480.3638000488281000,8.1374330520629880,40.3288002014160160,53,131,105,84,79,10440,2146960740,2147520201,2147290770,2147506642,2147089097,2146923017,2147714962,2147120310,618,-1,8,15424
1369019870,5805,1021.9600219726562000,163.4855957031250000,480.5351867675781000,8.1321372985839840,40.0429801940918000,53,126,104,84,80,10435,2146960347,2147517723,2147291757,2147509622,2147087030,2146929801,2147710262,2147122505,206,0,8,33242
1369023470,5805,1024.2199707031250000,160.7886047363281200,481.0504150390625000,8.1162185668945310,40.2561988830566400,53,129,102,84,80,10423,2146959350,2147521280,2147294198,2147509558,2147086189,2146928566,2147714157,2147123355,3161,-1,8,16814
1369027070,5803,1022.0200195312500000,162.7418975830078000,480.7713012695312500,8.1248426437377930,40.1027793884277340,53,130,103,87,81,10431,2146960283,2147520768,2147293705,2147505426,2147086272,2146924992,2147711734,2147120749,1135,-1,9,36417
1369030670,5805,1022.2700195312500000,162.8190002441406200,480.9298095703125000,8.1199445724487300,40.1006813049316400,53,123,102,101,80,10421,2146961673,2147518573,2147294025,2147505014,2147087113,2146927497,2147715355,2147125156,3420,-1,8,46550
1369034270,5805,1021.6300048828125000,153.9736022949218800,481.1192016601562500,8.1140909194946290,40.7835006713867200,53,130,104,82,81,10425,2146960603,2147522340,2147292928,2147509906,2147084498,2146927122,2147714194,2147122688,325,-1,8,3946
1369037870,5805,1027.9799804687500000,164.7317962646484400,479.0403137207031000,8.1783237457275390,39.9249114990234400,52,133,102,84,79,10422,2146955602,2147516772,2147293677,2147509421,2147085595,2146923099,2147713179,2147123410,3136,-1,9,19299
1369041470,5804,1030.2700195312500000,165.3858032226562500,478.8080139160156000,8.1854991912841800,39.8734016418457000,53,135,104,83,80,10423,2146962925,2147519332,2147292772,2147505353,2147088438,2146927332,2147715584,2147119936,3116,-1,8,25366
1369045070,5804,1027.9300537109375000,166.1060028076172000,479.2838134765625000,8.1708011627197270,39.8275794982910160,53,134,102,84,80,10415,2146960475,2147519917,2147294006,2147507803,2147086034,2146928896,2147712822,2147120384,3516,-1,8,53623
1369048670,5805,1022.5999755859375000,166.2306060791015600,480.8648071289062500,8.1219530105590820,39.8455505371093750,53,130,104,80,79,10409,2146964251,2147520740,2147294802,2147509430,2147086665,2146931931,2147708352,2147120521,3417,-1,8,9781
1369052270,5806,1026.5699462890625000,163.7501983642578000,480.1943054199219000,8.1426725387573240,40.0181617736816400,52,133,102,84,80,10410,2146962304,2147520128,2147295780,2147506925,2147081554,2146923090,2147714166,2147121453,3589,0,8,9588
1369055870,5807,1024.0699462890625000,165.6584930419922000,480.8893127441406000,8.1211967468261720,39.8878402709960940,53,132,103,84,81,10402,2146963456,2147523483,2147295232,2147506212,2147083291,2146927195,2147716214,2147121408,772,0,8,50699
1369059055,5804,1026.2299804687500000,165.2062988281250000,481.2119140625000000,8.1112279891967770,39.9272689819335940,53,126,101,84,80,10454,2146964470,2147518171,2147295387,2147504256,2147086345,2146929243,2147712557,2147123072,3134,-1,8,7749
